Вернуться в каталог

PROVES-ELECTRA

АктивенЛюбительское радиоVLEO
NORAD 69795·PAYLOAD·🇺🇸 United States

Запущен Nov 20, 1998 с Baikonur Cosmodrome

Loading…

Ближайшие Пролёты (ближайшие 24 часа)

TLE

СвежийSource: Space-Track

Эпоха: Sep 14, 2026, 06:30 UTC

1 69795U 98067YK  26257.27141514  .00059258  00000-0  79453-3 0  9993
2 69795  51.6294 216.9428 0007798 136.1196 224.0416 15.57351215 11494

Отслеживайте PROVES-ELECTRA в реальном времени с AllMySat

Download on the App Store